Regional Weather Roundup
Issued by NWS

Home | Current Version | Previous Version | Text Only | Print | Product List | Glossary On
Versions: 1 2 3 4 5 6 7 8 9 10 11 12 13 14 15 16 17 18 19 20 21 22 23 24 25 26 27 28 29 30 31 32 33 34 35 36 37 38 39 40 41 42 43 44 45 46 47 48 49 50
000
ASUS43 KDMX 280107
RWRIA

WEATHER ROUNDUP FOR IOWA
NATIONAL WEATHER SERVICE DES MOINES IA
800 PM CDT WED MAY 27 2015

NOTE: "FAIR" INDICATES FEW OR NO CLOUDS BELOW 12,000 FEET WITH NO
SIGNIFICANT WEATHER AND/OR OBSTRUCTIONS TO VISIBILITY.

* - THESE STATIONS ARE NOT NWS STATIONS...THUS NOT UNDER NWS
QUALITY CONTROL.  THEY ALSO DO NOT REPORT WEATHER SUCH
AS PRECIPITATION OR FOG.

IAZ001>003-012>014-020>022-031>034-043>046-280200-
   NORTHWEST IOWA

CITY           SKY/WX    TMP DP  RH WIND       PRES   REMARKS
CARROLL *      CLEAR     79  57  47 S6        30.03R HX  80
CHEROKEE *     CLEAR     77  52  41 S9        30.01S
DENISON *      CLEAR     77  55  47 CALM      30.01S
LE MARS *      CLEAR     79  52  38 S7        30.00S
ORANGE CITY *  CLEAR     75  50  41 S6        30.01R
SHELDON *      CLEAR     79  77  94 SW6       29.99S HX  83
SIOUX CITY     PTCLDY    78  53  41 S12       29.99S
SPENCER        PTCLDY    80  51  36 SW8       30.00S HX  80
STORM LAKE *   CLEAR     79  50  36 S7        30.03S
$$

IAZ055>058-069>071-079>083-090>094-280200-
   SOUTHWEST IOWA

CITY           SKY/WX    TMP DP  RH WIND       PRES   REMARKS
ATLANTIC *     CLEAR     77  57  50 S5        30.04R
AUDUBON *      CLEAR     75  57  53 S3        30.05S
CLARINDA *     CLEAR     77  59  53 S3        30.07S
COUNCIL BLFS * CLEAR     75  57  53 S7        30.04S
CRESTON *      CLEAR     73  61  64 S8        30.07R
HARLAN  *      CLEAR     77  55  47 S5        30.07R
LAMONI         MOCLDY    79  58  48 S3        30.07R HX  80
RED OAK *      CLEAR     77  55  47 S6        30.05R
SHENANDOAH *   CLEAR    N/A N/A N/A MISG      30.05S
$$

IAZ047>049-059>061-072>074-084-280200-
   CENTRAL IOWA

CITY           SKY/WX    TMP DP  RH WIND       PRES   REMARKS
AMES           CLEAR     74  59  59 S6        30.03S
ANKENY *       CLEAR     77  59  53 CALM      30.03S
CHARITON *     CLEAR     75  63  64 S5        30.07R
DES MOINES     MOCLDY    77  57  50 S6        30.04R
GRINNELL*      CLEAR     75  57  53 S5        30.06S
KNOXVILLE *    CLEAR     75  59  57 S3        30.04S
MARSHALLTOWN   CLEAR     75  58  55 S6        30.03S
PELLA *        CLEAR     75  64  69 CALM      30.06S
PERRY *          N/A     77  59  53 S5        30.03S
$$

IAZ004>006-015-016-023>025-035-036-280200-
   NORTH CENTRAL IOWA

CITY           SKY/WX    TMP DP  RH WIND       PRES   REMARKS
ALGONA *       CLEAR     79 -31   1 S8        30.01S
CLARION *      CLEAR     79  57  47 SW9       30.02S HX  80
ESTHERVILLE    CLEAR     76  54  46 S6        30.00R
FORT DODGE *   CLEAR     75  57  53 S6        30.03S
MASON CITY     CLEAR     78  54  43 SW3       30.02S
FOREST CITY *    N/A     77  52  41 CALM      30.01S
IOWA FALLS *     N/A     75  57  53 SW5       30.04F
$$

IAZ007>011-017>019-026>030-037>042-050>054-066-280200-
   NORTHEAST IOWA

CITY           SKY/WX    TMP DP  RH WIND       PRES   REMARKS
CEDAR RAPIDS   CLEAR     75  59  57 S5        30.04S
CHARLES CITY * CLEAR     75  61  60 S7        30.03S
CLINTON *      CLEAR     73  61  64 W3        30.08S
DECORAH *      CLEAR     75  59  57 S5        30.02S
DUBUQUE        CLEAR     71  60  68 SW6       30.06R
MONTICELLO *   CLEAR     73  63  68 S5        30.05S
OELWEIN *      CLEAR     75  61  60 SW5       30.05R
WATERLOO       CLEAR     74  59  59 SW5       30.02S
$$

IAZ064-065-067-068-078-280200-
   EAST CENTRAL IOWA

CITY           SKY/WX    TMP DP  RH WIND       PRES   REMARKS
DAVENPORT      CLEAR     75  58  55 CALM      30.06F
IOWA CITY      CLEAR     77  56  48 S3        30.06S
MT. PLEASANT * CLEAR     75  55  50 CALM      30.07S
MUSCATINE *    CLEAR     77  57  50 CALM      30.06S
QUAD CITIES    CLEAR     75  57  53 S3        30.05F
$$

IAZ062-063-075>077-085>089-095>099-280200-
   SOUTHEAST IOWA

CITY           SKY/WX    TMP DP  RH WIND       PRES   REMARKS
BURLINGTON     CLEAR     75  62  64 SW3       30.07S
FAIRFIELD *    CLEAR     77  55  47 CALM      30.07S
FORT MADISON * CLEAR     73  61  64 CALM      30.08S
KEOKUK *       CLEAR     73  59  60 CALM      30.06F
OSKALOOSA *      N/A     75  57  53 CALM      30.06F
CENTERVILLE *  CLEAR     73  73 100 SE3       30.09S
OTTUMWA        CLEAR     75  59  57 S3        30.06S
WASHINGTON *   CLEAR     75  59  57 SW6       30.07F
$$

ABBREVIATIONS USED IN REMARKS
   TC - TEMPERATURES IN CELSIUS
  WCI - WIND CHILL INDEX
   HX - HEAT INDEX
  VSB - VISIBILITY
$$



USA.gov is the U.S. government's official web portal to all federal, state and local government web resources and services.